Weather History for Falfurrias, TX

Change the Weather History Date:

Friday, March 7, 2014

  Actual Average (KNQI) Record (KNQI)
Temperature  
Mean Temperature 58 °F -  
Max Temperature 75 °F 72 °F 84 °F (1998)
Min Temperature 42 °F 54 °F 39 °F (2008)
Degree Days  
Heating Degree Days 6    
Growing Degree Days 8 (Base 50)    
Moisture  
Dew Point 50 °F    
Average Humidity 71    
Maximum Humidity 98    
Minimum Humidity 39    
Precipitation  
Precipitation 0.00 in - - ()
Sea Level Pressure  
Sea Level Pressure 29.98 in    
Wind  
Wind Speed 5 mph (SE)    
Max Wind Speed 16 mph    
Max Gust Speed 22 mph    
Visibility 7 miles    
Events      
Averages and records for this station are not official NWS values.
T = Trace of Precipitation, MM = Missing Value Source: NWS Daily Summary

Daily Weather History Graph

Daily Weather History Graph

Search for Another Location

Airport:

Trip Planner

Search our weather history database for the weather conditions in past years. The results will help you decide how hot, cold, wet, or windy it might be!

Date:

Astronomy

Mar. 07, 2014 Rise Set
Actual Time 6:50 AM CST 6:36 PM CST
Civil Twilight 6:27 AM CST 7:00 PM CST
Nautical Twilight 6:00 AM CST 7:27 PM CST
Astronomical Twilight 5:33 AM CST 7:54 PM CST
Moon 11:17 AM CST (3/7) 12:11 AM CST (3/7)
Length of Visible Light 12h 33m
Length of Day
11h 46m
Waxing Crescent, 42% of the Moon is Illuminated
Mar 7
Waxing Crescent
Mar 8
First Quarter
Mar 16
Full
Mar 23
Last Quarter
Mar 30
New

Hourly Weather History & Observations

Time (CST) Temp. Dew Point Humidity Pressure Visibility Wind Dir Wind Speed Gust Speed Precip Events Conditions
12:15 AM 54.1 °F 48.7 °F 82% 30.08 in 7.0 mi ESE 3.5 mph - N/A   Clear
12:35 AM 53.2 °F 48.4 °F 84% 30.08 in 7.0 mi Calm Calm - N/A   Clear
12:55 AM 52.9 °F 48.4 °F 85% 30.08 in 7.0 mi Calm Calm - N/A   Clear
1:15 AM 52.0 °F 48.0 °F 86% 30.08 in 7.0 mi Calm Calm - N/A   Clear
1:35 AM 50.4 °F 47.3 °F 89% 30.07 in 5.0 mi ENE 3.5 mph - N/A   Clear
1:55 AM 50.0 °F 47.3 °F 90% 30.06 in 4.0 mi Calm Calm - N/A   Clear
2:15 AM 49.5 °F 47.1 °F 92% 30.06 in 3.0 mi Calm Calm - N/A   Clear
2:35 AM 48.2 °F 45.7 °F 91% 30.06 in 3.0 mi Calm Calm - N/A   Clear
2:55 AM 47.1 °F 44.8 °F 92% 30.05 in 4.0 mi Calm Calm - N/A   Clear
3:15 AM 46.0 °F 43.9 °F 92% 30.04 in 1.8 mi Calm Calm - N/A   Unknown
3:35 AM 45.0 °F 43.2 °F 93% 30.03 in 0.2 mi Calm Calm - N/A   Unknown
3:55 AM 44.2 °F 42.6 °F 94% 30.03 in 0.2 mi Calm Calm - N/A   Unknown
4:15 AM 44.2 °F 43.0 °F 95% 30.03 in 0.2 mi Calm Calm - N/A   Overcast
4:35 AM 43.3 °F 42.3 °F 96% 30.03 in 0.2 mi Calm Calm - N/A   Overcast
4:55 AM 43.3 °F 42.4 °F 97% 30.03 in 0.2 mi Calm Calm - N/A   Overcast
5:15 AM 43.3 °F 42.6 °F 97% 30.03 in 0.2 mi Calm Calm - N/A   Overcast
5:35 AM 43.5 °F 42.8 °F 97% 30.04 in 0.2 mi Calm Calm - N/A   Overcast
5:55 AM 43.2 °F 42.4 °F 97% 30.03 in 0.2 mi Calm Calm - N/A   Overcast
6:15 AM 42.6 °F 41.9 °F 97% 30.03 in 0.2 mi Calm Calm - N/A   Overcast
6:35 AM 42.6 °F 41.9 °F 97% 30.04 in 0.2 mi Calm Calm - N/A   Overcast
6:55 AM 42.1 °F 41.5 °F 98% 30.05 in 0.2 mi Calm Calm - N/A   Overcast
7:15 AM 42.8 °F 42.1 °F 97% 30.06 in 0.2 mi Calm Calm - N/A   Overcast
7:35 AM 42.8 °F 42.3 °F 98% 30.06 in 0.2 mi Calm Calm - N/A   Overcast
7:55 AM 44.6 °F 44.1 °F 98% 30.06 in 0.2 mi Calm Calm - N/A   Overcast
8:15 AM 47.1 °F 46.2 °F 97% 30.06 in 1.5 mi Calm Calm - N/A   Unknown
8:35 AM 49.3 °F 48.6 °F 97% 30.06 in 2.5 mi Calm Calm - N/A   Clear
8:55 AM 52.0 °F 51.1 °F 97% 30.06 in 5.0 mi Calm Calm - N/A   Clear
9:15 AM 54.5 °F 53.2 °F 96% 30.06 in 10.0 mi ESE 4.6 mph - N/A   Clear
9:35 AM 55.9 °F 54.3 °F 94% 30.05 in 10.0 mi SE 6.9 mph - N/A   Clear
9:55 AM 62.4 °F 51.8 °F 68% 30.05 in 10.0 mi ESE 6.9 mph - N/A   Clear
10:15 AM 64.6 °F 49.3 °F 58% 30.05 in 10.0 mi SSE 9.2 mph 16.1 mph N/A   Clear
10:35 AM 65.5 °F 49.3 °F 56% 30.05 in 10.0 mi SE 10.4 mph - N/A   Clear
10:55 AM 66.9 °F 49.1 °F 53% 30.04 in 10.0 mi SSE 8.1 mph 17.3 mph N/A   Clear
11:15 AM 68.4 °F 48.7 °F 49% 30.04 in 10.0 mi SE 10.4 mph 19.6 mph N/A   Clear
11:35 AM 70.3 °F 47.5 °F 44% 30.03 in 10.0 mi SSE 11.5 mph - N/A   Clear
11:55 AM 70.9 °F 48.2 °F 44% 30.01 in 10.0 mi SSE 8.1 mph - N/A   Clear
12:15 PM 71.4 °F 48.4 °F 44% 29.99 in 10.0 mi SE 9.2 mph 16.1 mph N/A   Clear
12:35 PM 73.0 °F 48.6 °F 42% 29.98 in 10.0 mi SSE 10.4 mph - N/A   Clear
12:55 PM 74.1 °F 48.2 °F 40% 29.97 in 10.0 mi South 9.2 mph 18.4 mph N/A   Clear
1:15 PM 74.5 °F 48.4 °F 40% 29.95 in 10.0 mi SSE 9.2 mph 17.3 mph N/A   Clear
1:35 PM 75.0 °F 48.4 °F 39% 29.94 in 10.0 mi SSE 4.6 mph 17.3 mph N/A   Clear
1:55 PM 74.7 °F 49.1 °F 40% 29.93 in 10.0 mi South 15.0 mph - N/A   Clear
2:15 PM 74.7 °F 49.5 °F 41% 29.92 in 10.0 mi SSE 16.1 mph 19.6 mph N/A   Clear
2:35 PM 75.6 °F 49.5 °F 40% 29.91 in 10.0 mi SSE 15.0 mph 21.9 mph N/A   Scattered Clouds
2:55 PM 74.5 °F 50.5 °F 43% 29.90 in 10.0 mi SE 11.5 mph 17.3 mph N/A   Scattered Clouds
3:15 PM 74.3 °F 50.5 °F 43% 29.89 in 10.0 mi SSE 13.8 mph 19.6 mph N/A   Mostly Cloudy
3:35 PM 73.8 °F 51.3 °F 45% 29.89 in 10.0 mi SE 12.7 mph - N/A   Overcast
3:55 PM 73.4 °F 51.4 °F 46% 29.89 in 10.0 mi SE 11.5 mph 17.3 mph N/A   Overcast
4:15 PM 72.5 °F 52.0 °F 48% 29.89 in 10.0 mi SE 12.7 mph 17.3 mph N/A   Overcast
4:35 PM 72.1 °F 52.7 °F 50% 29.89 in 10.0 mi SE 11.5 mph 18.4 mph N/A   Overcast
4:55 PM 72.0 °F 52.9 °F 51% 29.88 in 10.0 mi SE 12.7 mph 18.4 mph N/A   Overcast
5:15 PM 72.0 °F 53.1 °F 51% 29.88 in 10.0 mi SE 15.0 mph - N/A   Overcast
5:35 PM 71.6 °F 53.6 °F 53% 29.88 in 10.0 mi SE 12.7 mph 16.1 mph N/A   Overcast
5:55 PM 70.7 °F 54.1 °F 56% 29.87 in 10.0 mi ESE 11.5 mph 16.1 mph N/A   Overcast
6:15 PM 69.8 °F 54.5 °F 58% 29.88 in 10.0 mi ESE 13.8 mph - N/A   Overcast
6:35 PM 68.9 °F 54.7 °F 60% 29.88 in 10.0 mi ESE 12.7 mph 17.3 mph N/A   Overcast
6:55 PM 68.0 °F 55.4 °F 64% 29.88 in 10.0 mi ESE 10.4 mph - N/A   Overcast
7:15 PM 67.8 °F 55.6 °F 65% 29.87 in 10.0 mi SE 13.8 mph 20.7 mph N/A   Overcast
7:35 PM 67.5 °F 55.9 °F 66% 29.88 in 10.0 mi SE 11.5 mph 18.4 mph N/A   Overcast
7:55 PM 67.5 °F 56.3 °F 67% 29.90 in 10.0 mi SE 10.4 mph - N/A   Overcast
8:10 PM 67.5 °F 56.5 °F 68% 29.90 in 10.0 mi SE 11.5 mph 16.1 mph N/A   Overcast
8:35 PM 67.3 °F 56.7 °F 69% 29.91 in 10.0 mi SE 10.4 mph - N/A   Overcast
8:55 PM 67.3 °F 57.2 °F 70% 29.91 in 10.0 mi SE 10.4 mph 16.1 mph N/A   Overcast
9:15 PM 67.1 °F 57.2 °F 70% 29.91 in 10.0 mi SE 10.4 mph - N/A   Overcast
9:35 PM 67.1 °F 57.2 °F 70% 29.92 in 10.0 mi SE 9.2 mph - N/A   Overcast
9:55 PM 66.7 °F 57.2 °F 71% 29.91 in 10.0 mi SE 9.2 mph - N/A   Overcast
10:15 PM 66.6 °F 57.2 °F 72% 29.91 in 10.0 mi SE 9.2 mph - N/A   Overcast
10:35 PM 66.6 °F 57.2 °F 72% 29.91 in 10.0 mi SE 10.4 mph - N/A   Overcast
10:55 PM 66.7 °F 57.4 °F 72% 29.92 in 10.0 mi SSE 8.1 mph - N/A   Overcast
11:15 PM 66.7 °F 57.6 °F 72% 29.92 in 10.0 mi SE 5.8 mph - N/A   Overcast
11:35 PM 66.4 °F 57.6 °F 73% 29.91 in 10.0 mi SE 9.2 mph - N/A   Overcast
11:55 PM 65.8 °F 57.6 °F 75% 29.90 in 10.0 mi SE 8.1 mph - N/A   Overcast